Regional Weather Roundup
Issued by NWS

Home | Current Version | Previous Version | Text Only | Print | Product List | Glossary Off
Versions: 1 2 3 4 5 6 7 8 9 10 11 12 13 14 15 16 17 18 19 20 21 22 23 24 25 26 27 28 29 30 31 32 33 34 35 36 37 38 39 40 41 42 43 44 45 46 47 48 49 50

000
ASUS43 KBIS 310559
RWRND

NORTH DAKOTA REGIONAL WEATHER ROUNDUP
NATIONAL WEATHER SERVICE BISMARCK ND
100 AM CDT SUN AUG 31 2014

NOTE: "FAIR" INDICATES FEW OR NO CLOUDS BELOW 12,000 FEET WITH NO
SIGNIFICANT WEATHER AND/OR OBSTRUCTIONS TO VISIBILITY.


NDZ001>003-009>011-017-310700-
NORTHWEST NORTH DAKOTA

CITY           SKY/WX    TMP DP  RH WIND       PRES   REMARKS
WILLISTON      CLOUDY    60  58  92 N3        29.69S
6HR MIN TEMP:  60; 6HR MAX TEMP:  64; 6HR PCP:  0.08;

MINOT AFB      TSTM      61  61 100 W1        29.67F FOG
$$

NDZ018>021-031>035-040>046-310700-
SOUTHWEST NORTH DAKOTA

CITY           SKY/WX    TMP DP  RH WIND       PRES   REMARKS
BISMARCK       LGT RAIN  61  60  97 E9        29.71F
6HR MIN TEMP:  61; 6HR MAX TEMP:  74; 6HR PCP:  0.33;

GARRISON         N/A     62  60  93 SE9G20    29.65F
6HR MIN TEMP:  62; 6HR MAX TEMP:  69; 6HR PCP:  0.14;

HETTINGER ARPT CLOUDY    60  58  92 SE5       29.70F
$$

NDZ004>008-012>016-024-026-027-054-310700-
NORTHEAST NORTH DAKOTA

CITY           SKY/WX    TMP DP  RH WIND       PRES   REMARKS
GRAND FORKS    FAIR      59  57  93 SE6       29.77F
DEVILS LAKE    FAIR      61  54  77 SE14      29.72F
$$

NDZ022-023-025-028>030-036>039-047>053-310700-
SOUTHEAST NORTH DAKOTA

CITY           SKY/WX    TMP DP  RH WIND       PRES   REMARKS
FARGO          FAIR      61  58  90 SE9       29.80S
6HR MIN TEMP:  61; 6HR MAX TEMP:  69;

$$




USA.gov is the U.S. government's official web portal to all federal, state and local government web resources and services.